• In Schweiz
  • Länderverzeichnis
  • Für 7 Tage
  • Wassertemperatur
  • Satellitenkarten
  • Wetterkarte
  • Widgets
  • user-avatar
    Anmelden

    Stündliche Wetter Serhiivka

    Heute, 25 April, Mittwoch

    Zeit Temperatur Niederschläge Wind Luftdruck Luftfeuchtigkeit
    00:00 +13°C° 0 mm 3 m/S 755 mmHg 86%
    01:00 +12°C° 0 mm 3 m/S 755 mmHg 88%
    02:00 +12°C° 0 mm 3 m/S 756 mmHg 90%
    03:00 +12°C° 0 mm 3 m/S 756 mmHg 90%
    04:00 +13°C° 0 mm 2 m/S 756 mmHg 90%
    05:00 +13°C° 0 mm 2 m/S 756 mmHg 90%
    06:00 +14°C° 0 mm 2 m/S 756 mmHg 81%
    07:00 +16°C° 0 mm 2 m/S 756 mmHg 72%
    08:00 +18°C° 0 mm 2 m/S 757 mmHg 63%
    09:00 +19°C° 0 mm 3 m/S 757 mmHg 55%
    10:00 +21°C° 0 mm 3 m/S 757 mmHg 48%
    11:00 +22°C° 0 mm 3 m/S 757 mmHg 40%
    12:00 +24°C° 0 mm 3 m/S 757 mmHg 38%
    13:00 +24°C° 0 mm 3 m/S 757 mmHg 35%
    14:00 +25°C° 0 mm 3 m/S 756 mmHg 33%
    15:00 +25°C° 0 mm 3 m/S 756 mmHg 34%
    16:00 +25°C° 0 mm 3 m/S 756 mmHg 35%
    17:00 +25°C° 0 mm 3 m/S 756 mmHg 36%
    18:00 +22°C° 0 mm 3 m/S 756 mmHg 41%
    19:00 +20°C° 0 mm 3 m/S 756 mmHg 46%
    20:00 +18°C° 0 mm 2 m/S 756 mmHg 51%
    21:00 +18°C° 0 mm 3 m/S 756 mmHg 54%
    22:00 +17°C° 0 mm 3 m/S 756 mmHg 58%
    23:00 +16°C° 0 mm 3 m/S 756 mmHg 62%

    Morgen, 26 April, Donnerstag

    Zeit Temperatur Niederschläge Wind Luftdruck Luftfeuchtigkeit
    00:00 +16°C° 0 mm 3 m/S 756 mmHg 63%
    01:00 +14°C° 0 mm 3 m/S 756 mmHg 64%
    02:00 +14°C° 0 mm 4 m/S 756 mmHg 65%
    03:00 +14°C° 0 mm 3 m/S 756 mmHg 68%
    04:00 +14°C° 0 mm 3 m/S 756 mmHg 71%
    05:00 +13°C° 0 mm 3 m/S 756 mmHg 73%
    06:00 +15°C° 0 mm 4 m/S 756 mmHg 69%
    07:00 +17°C° 0 mm 5 m/S 756 mmHg 65%
    08:00 +20°C° 0 mm 5 m/S 756 mmHg 62%
    09:00 +22°C° 0 mm 5 m/S 756 mmHg 57%
    10:00 +23°C° 0 mm 6 m/S 756 mmHg 52%
    11:00 +26°C° 0 mm 6 m/S 756 mmHg 48%
    12:00 +27°C° 0 mm 6 m/S 755 mmHg 46%
    13:00 +28°C° 0 mm 6 m/S 755 mmHg 43%
    14:00 +28°C° 0 mm 5 m/S 755 mmHg 41%
    15:00 +28°C° 0 mm 5 m/S 755 mmHg 43%
    16:00 +27°C° 0 mm 5 m/S 755 mmHg 45%
    17:00 +27°C° 0 mm 5 m/S 754 mmHg 47%
    18:00 +25°C° 0 mm 4 m/S 755 mmHg 52%
    19:00 +21°C° 0 mm 4 m/S 755 mmHg 58%
    20:00 +19°C° 0 mm 4 m/S 755 mmHg 64%
    21:00 +18°C° 0 mm 3 m/S 755 mmHg 66%
    22:00 +17°C° 0 mm 3 m/S 755 mmHg 68%
    23:00 +16°C° 0 mm 3 m/S 755 mmHg 70%

    übermorgen, 27 April, Freitag

    Zeit Temperatur Niederschläge Wind Luftdruck Luftfeuchtigkeit
    00:00 +16°C° 0 mm 3 m/S 755 mmHg 71%
    01:00 +14°C° 0 mm 3 m/S 755 mmHg 73%
    02:00 +14°C° 0 mm 3 m/S 755 mmHg 75%
    03:00 +14°C° 0 mm 2 m/S 755 mmHg 76%
    04:00 +14°C° 0 mm 2 m/S 755 mmHg 78%
    05:00 +14°C° 0 mm 2 m/S 755 mmHg 80%
    06:00 +15°C° 0 mm 2 m/S 755 mmHg 74%
    07:00 +17°C° 0 mm 3 m/S 755 mmHg 68%
    08:00 +19°C° 0 mm 3 m/S 755 mmHg 62%
    09:00 +21°C° 0 mm 4 m/S 755 mmHg 57%
    10:00 +22°C° 0 mm 4 m/S 755 mmHg 52%
    11:00 +25°C° 0 mm 4 m/S 755 mmHg 47%
    12:00 +23°C° 0,4 mm 5 m/S 755 mmHg 52%
    13:00 +23°C° 0,4 mm 6 m/S 755 mmHg 57%
    14:00 +22°C° 0,4 mm 7 m/S 755 mmHg 62%
    15:00 +21°C° 0,2 mm 6 m/S 755 mmHg 62%
    16:00 +20°C° 0,2 mm 6 m/S 756 mmHg 63%
    17:00 +20°C° 0,2 mm 5 m/S 756 mmHg 64%
    18:00 +18°C° 0 mm 4 m/S 756 mmHg 68%
    19:00 +17°C° 0 mm 4 m/S 757 mmHg 71%
    20:00 +16°C° 0 mm 3 m/S 758 mmHg 75%
    21:00 +14°C° 0 mm 3 m/S 758 mmHg 77%
    22:00 +14°C° 0 mm 3 m/S 759 mmHg 79%
    23:00 +13°C° 0 mm 3 m/S 759 mmHg 81%

    28 April, Samstag

    Zeit Temperatur Niederschläge Wind Luftdruck Luftfeuchtigkeit
    00:00 +12°C° 0 mm 3 m/S 760 mmHg 81%
    01:00 +12°C° 0 mm 3 m/S 760 mmHg 81%
    02:00 +11°C° 0 mm 3 m/S 760 mmHg 81%
    03:00 +11°C° 0 mm 3 m/S 761 mmHg 80%
    04:00 +10°C° 0 mm 3 m/S 761 mmHg 80%
    05:00 +10°C° 0 mm 3 m/S 761 mmHg 79%
    06:00 +12°C° 0 mm 3 m/S 762 mmHg 71%
    07:00 +14°C° 0 mm 3 m/S 762 mmHg 62%
    08:00 +15°C° 0 mm 4 m/S 762 mmHg 54%
    09:00 +18°C° 0 mm 4 m/S 763 mmHg 48%
    10:00 +19°C° 0 mm 4 m/S 763 mmHg 42%
    11:00 +20°C° 0 mm 3 m/S 763 mmHg 36%
    12:00 +21°C° 0 mm 3 m/S 763 mmHg 35%
    13:00 +21°C° 0 mm 3 m/S 763 mmHg 33%
    14:00 +22°C° 0 mm 3 m/S 762 mmHg 31%
    15:00 +22°C° 0 mm 3 m/S 762 mmHg 32%
    16:00 +21°C° 0 mm 3 m/S 762 mmHg 34%
    17:00 +21°C° 0 mm 3 m/S 762 mmHg 35%
    18:00 +20°C° 0 mm 3 m/S 762 mmHg 39%
    19:00 +18°C° 0 mm 2 m/S 763 mmHg 43%
    20:00 +16°C° 0 mm 2 m/S 763 mmHg 48%
    21:00 +16°C° 0 mm 2 m/S 763 mmHg 50%
    22:00 +15°C° 0 mm 2 m/S 763 mmHg 52%
    23:00 +14°C° 0 mm 2 m/S 763 mmHg 54%

    29 April, Sonntag

    Zeit Temperatur Niederschläge Wind Luftdruck Luftfeuchtigkeit
    00:00 +14°C° 0 mm 2 m/S 763 mmHg 55%
    01:00 +13°C° 0 mm 2 m/S 764 mmHg 57%
    02:00 +13°C° 0 mm 2 m/S 764 mmHg 59%
    03:00 +13°C° 0 mm 2 m/S 764 mmHg 61%
    04:00 +11°C° 0 mm 3 m/S 764 mmHg 63%
    05:00 +11°C° 0 mm 3 m/S 764 mmHg 65%
    06:00 +13°C° 0 mm 3 m/S 764 mmHg 61%
    07:00 +16°C° 0 mm 3 m/S 764 mmHg 57%
    08:00 +18°C° 0 mm 4 m/S 764 mmHg 53%
    09:00 +20°C° 0 mm 4 m/S 764 mmHg 48%
    10:00 +21°C° 0 mm 4 m/S 764 mmHg 43%
    11:00 +23°C° 0 mm 4 m/S 763 mmHg 38%
    12:00 +23°C° 0 mm 4 m/S 763 mmHg 37%
    13:00 +25°C° 0 mm 4 m/S 763 mmHg 36%
    14:00 +26°C° 0 mm 3 m/S 762 mmHg 34%
    15:00 +25°C° 0 mm 3 m/S 762 mmHg 36%
    16:00 +25°C° 0 mm 3 m/S 762 mmHg 38%
    17:00 +25°C° 0 mm 3 m/S 761 mmHg 39%
    18:00 +22°C° 0 mm 3 m/S 761 mmHg 45%
    19:00 +20°C° 0 mm 3 m/S 761 mmHg 50%
    20:00 +18°C° 0 mm 3 m/S 761 mmHg 55%
    21:00 +17°C° 0 mm 3 m/S 761 mmHg 57%
    22:00 +16°C° 0 mm 2 m/S 761 mmHg 59%
    23:00 +15°C° 0 mm 2 m/S 761 mmHg 61%

    30 April, Montag

    Zeit Temperatur Niederschläge Wind Luftdruck Luftfeuchtigkeit
    00:00 +14°C° 0 mm 2 m/S 761 mmHg 62%
    01:00 +14°C° 0 mm 2 m/S 761 mmHg 63%
    02:00 +13°C° 0 mm 2 m/S 761 mmHg 64%
    03:00 +13°C° 0 mm 2 m/S 761 mmHg 65%
    04:00 +13°C° 0 mm 2 m/S 761 mmHg 67%
    05:00 +12°C° 0 mm 3 m/S 761 mmHg 68%
    06:00 +14°C° 0 mm 3 m/S 761 mmHg 64%
    07:00 +17°C° 0 mm 4 m/S 761 mmHg 59%
    08:00 +19°C° 0 mm 4 m/S 761 mmHg 55%
    09:00 +21°C° 0 mm 5 m/S 760 mmHg 49%
    10:00 +22°C° 0 mm 5 m/S 760 mmHg 44%
    11:00 +25°C° 0 mm 5 m/S 760 mmHg 39%
    12:00 +26°C° 0 mm 5 m/S 760 mmHg 37%
    13:00 +27°C° 0 mm 5 m/S 759 mmHg 36%
    14:00 +27°C° 0 mm 5 m/S 759 mmHg 34%
    15:00 +27°C° 0 mm 5 m/S 759 mmHg 36%
    16:00 +26°C° 0 mm 5 m/S 759 mmHg 37%
    17:00 +26°C° 0 mm 5 m/S 758 mmHg 38%
    18:00 +23°C° 0 mm 4 m/S 758 mmHg 43%
    19:00 +21°C° 0 mm 4 m/S 759 mmHg 48%
    20:00 +19°C° 0 mm 3 m/S 759 mmHg 53%
    21:00 +18°C° 0 mm 3 m/S 759 mmHg 55%
    22:00 +17°C° 0 mm 3 m/S 759 mmHg 57%
    23:00 +16°C° 0 mm 3 m/S 759 mmHg 59%
    Mehr zeigen